Regional Weather Roundup
Issued by NWS

Home | Current Version | Previous Version | Text Only | Print | Product List | Glossary Off
Versions: 1 2 3 4 5 6 7 8 9 10 11 12 13 14 15 16 17 18 19 20 21 22 23 24 25 26 27 28 29 30 31 32 33 34 35 36 37 38 39 40 41 42 43 44 45 46 47 48 49 50

000
ASUS43 KMPX 290901
RWRMN
WEATHER ROUNDUP FOR MINNESOTA
NATIONAL WEATHER SERVICE TWIN CITIES/CHANHASSEN MN
400 AM CDT SUN MAR 29 2015


NOTE: "FAIR" INDICATES FEW OR NO CLOUDS BELOW 12,000 FEET WITH NO
SIGNIFICANT WEATHER AND/OR OBSTRUCTIONS TO VISIBILITY. N/A MEANS
CURRENT SKY AND/OR WEATHER CONDITIONS ARE NOT AVAILABLE.

MNZ060>063-068>070-291000-
   Twin Cities Metro

CITY           SKY/WX    TMP DP  RH WIND       PRES   REMARKS
TWIN CITIES    LGT RAIN  36  26  67 S21G26    29.80F
ST PAUL        MIX PCPN  36  24  62 S15G22    29.82F
CRYSTAL        RAIN      37  28  70 S14G21    29.78F
BLAINE         RAIN      37  28  70 S17G23    29.79F
LAKEVILLE      LGT RAIN  34  25  69 S9G23     29.80F WCI  26
EDEN PRAIRIE   LGT RAIN  38  28  67 S15       29.82R
SOUTH ST PAUL  CLOUDY    37  24  59 S13G24    29.82F
LAKE ELMO      FAIR      36  23  60 S15G25    29.83F
$$
MNZ001>005-007-008-013>017-022>024-027-028-291000-
   Northwest Minnesota

CITY           SKY/WX    TMP DP  RH WIND       PRES   REMARKS
BEMIDJI        LGT RAIN  38  29  68 S18G25    29.49F
HALLOCK        CLOUDY    39  37  93 W3        29.41R
ROSEAU         LGT RAIN  39  34  81 S13       29.40F
WARROAD        LGT RAIN  37  34  87 S10       29.41F
THIEF RVR FALL CLOUDY    41  36  81 S22G32    29.42F
CROOKSTON      CLOUDY    39  37  93 S25       29.44F
FOSSTON        RAIN      37  34  87 S23G31    29.46F
DETROIT LAKES  MIX PCPN  36  34  93 S18       29.52F
MOORHEAD       CLOUDY    39  39 100 S18       29.50S
PARK RAPIDS    LGT RAIN  38  31  76 S15       29.55F
MAHNOMEN       LGT RAIN  37  34  87 S18G28    29.50F
$$
MNZ006-009>011-018-025>026-291000-
   North Central Minnesota

CITY           SKY/WX    TMP DP  RH WIND       PRES   REMARKS
BAUDETTE       LGT RAIN  37  33  85 S14       29.43F
FLAG ISLAND    LGT RAIN  34  32  93 S13       29.40F WCI  25
INTL FALLS     CLOUDY    38  25  59 S12G18    29.47F
WASKISH        RAIN      37  34  87 S7        29.46F
BIG FORK       CLOUDY    37  25  60 S16G25    29.52F
LONGVILLE      CLOUDY    36  25  64 S16G22    29.57F
GRAND RAPIDS   CLOUDY    34  21  60 S17       29.58F WCI  23
CRANE LAKE     CLOUDY    36  21  55 S12G22    29.56F
ORR            CLOUDY    36  21  55 S17G28    29.51F
COOK           CLOUDY    36  21  55 S16G29    29.57F
WALKER         CLOUDY    38  26  64 S13G22    29.54F
$$
MNZ012-019>021-037-291000-
   Northeast Minnesota

CITY           SKY/WX    TMP DP  RH WIND       PRES   REMARKS
DULUTH         MOCLDY    35  18  49 S20       29.69F WCI  24
ELY            CLOUDY    34  19  55 S15G29    29.58F WCI  24
HIBBING        CLOUDY    34  19  54 S12G18    29.60F WCI  25
EVELETH        CLOUDY    34  21  60 S20       29.62F WCI  22
DULUTH HARBOR  MOCLDY    37  19  48 S12       29.75F
TWO HARBORS    MOCLDY    36  21  55 S7        29.70F
SILVER BAY     MOCLDY    36  19  51 S9        29.69F
GRAND MARAIS     N/A     34  27  75 SW13      29.74F WCI  25
G MARAIS ARPRT CLOUDY    28  16  59 S14G24    29.69F WCI  17
$$
MNZ029>031-032-039>041-046>048-054>057-064-291000-
   West Central Minnesota

CITY           SKY/WX    TMP DP  RH WIND       PRES   REMARKS
FERGUS FALLS   CLOUDY    37  32  81 S15       29.58F
WHEATON        CLOUDY    37  34  87 S12       29.58F
MORRIS         CLOUDY    37  34  87 S14       29.59F
ALEXANDRIA     MIX PCPN  37  31  78 S17G28    29.60F
ELBOW LAKE     CLOUDY    37  33  87 S18       29.57F
WADENA         LGT RAIN  36  30  80 S17       29.57F
GLENWOOD       LGT RAIN  36  32  87 S21       29.63F
APPLETON       CLOUDY    43  34  70 S12       29.61F
BENSON         CLOUDY    37  32  81 S13       29.63F
ORTONVILLE     CLOUDY    43  32  65 S7        29.59F
MADISON        CLOUDY    45  34  65 S10G22    29.62F
WILLMAR        DRIZZLE   37  30  75 S14       29.68F
$$
MNZ033>034-036-042>043-049>051-058-059-291000-
   Central Minnesota

CITY           SKY/WX    TMP DP  RH WIND       PRES   REMARKS
ST CLOUD       LGT RAIN  35  30  82 S16       29.71F WCI  25
SAUK CENTRE    LGT RAIN  35  32  87 S15       29.65F WCI  25
PAYNESVILLE    CLOUDY    33  30  86 SE15G22   29.68F WCI  23
AITKIN         MOCLDY    37  25  60 S15G21    29.63F
PINE RIVER     MOCLDY    37  28  70 S17       29.63F
BRAINERD       CLOUDY    37  27  67 S18G26    29.64F
STAPLES        CLOUDY    36  30  80 S18G26    29.60F
LONG PRAIRIE   CLOUDY    34  32  93 SE20G25   29.63F WCI  22
LITTLE FALLS   MOCLDY    36  30  80 S13G21    29.67F
LITCHFIELD     CLOUDY    36  34  93 CALM      29.71F
BUFFALO        CLOUDY    36  30  80 S16G22    29.75F
MAPLE LAKE     LGT RAIN  36  33  87 S16       29.73F
$$
MNZ037-044-045-052-053-291000-
   East Central Minnesota

CITY           SKY/WX    TMP DP  RH WIND       PRES   REMARKS
PRINCETON      LGT RAIN  37  30  75 S15G21    29.74F
MORA           LGT RAIN  34  23  64 S12       29.75F WCI  25
CAMBRIDGE      LGT RAIN  37  25  60 S12       29.75F
RUSH CITY      MOCLDY    36  22  56 S13G21    29.79S
MOOSE LAKE     MOCLDY    36  19  51 S13G22    29.69F
HINCKLEY       FAIR      34  23  64 S15G21    29.74F WCI  24
CLOQUET        MOCLDY    36  18  48 S12G20    29.69F
MCGREGOR       MOCLDY    36  23  60 S16       29.65F
$$
MNZ071>073-080-081-089-090-097-098-291000-
   Southwest Minnesota

CITY           SKY/WX    TMP DP  RH WIND       PRES   REMARKS
MONTEVIDEO     CLOUDY    43  36  75 SW17      29.65F
GRANITE FALLS  CLOUDY    40  34  78 S20       29.68F
CANBY          MOCLDY    44  32  63 SW17G41   29.61F
MARSHALL       CLOUDY    41  28  60 SW31G43   29.63R
REDWOOD FALLS  CLOUDY    41  33  73 S14       29.71F
OLIVIA         RAIN      34  32  93 S12       29.69F WCI  25
PIPESTONE      MOCLDY    37  32  81 SW18      29.65F
WINDOM         CLOUDY    39  34  81 S24G32    29.69F
WORTHINGTON    CLOUDY    39  30  70 S22       29.72F
JACKSON        CLOUDY    37  32  81 S22G29    29.74F
TRACY          CLOUDY    41  32  71 S24G38    29.66R
SLAYTON        CLOUDY    37  31  79 S21G32    29.67F
$$
MNZ065>067-074>077-082>085-091>093-291000-
   South Central Minnesota

CITY           SKY/WX    TMP DP  RH WIND       PRES   REMARKS
MANKATO        CLOUDY    37  25  60 S21G31    29.74F
NEW ULM        LGT RAIN  36  30  80 S22G31    29.71F
ST JAMES       CLOUDY    37  32  81 S31G38    29.71F
FAIRMONT       CLOUDY    36  28  75 S26G33    29.75F
GLENCOE        CLOUDY    37  32  84 S10G18    29.74F
FARIBAULT      MOCLDY    36  25  64 S22G28    29.77F
OWATONNA       MOCLDY    34  25  69 S24G32    29.78F WCI  21
WASECA         MOCLDY    37  28  70 S26G37    29.80F
ALBERT LEA     DRIZZLE   36  25  64 S20G30    29.82F
$$
MNZ078>079-086>088-094>096-291000-
   Southeast Minnesota

CITY           SKY/WX    TMP DP  RH WIND       PRES   REMARKS
ROCHESTER      PTCLDY    30  21  69 S25G33    29.90F WCI  16
RED WING       MOCLDY    36  19  51 S13G25    29.87F
STANTON        MOCLDY    36  25  64 S21G35    29.79F
DODGE CENTER   MOCLDY    32  25  74 S28G33    29.84F WCI  18
WINONA         MOCLDY    34  19  55 S7        29.95F WCI  28
AUSTIN         PTCLDY    32  21  64 S18G24    29.88F WCI  20
PRESTON        PTCLDY    29  20  68 S18       29.92S WCI  17
$$
ABBREVIATIONS USED IN REMARKS
   TC - TEMPERATURES IN CELSIUS
  WCI - WIND CHILL INDEX
   HX - HEAT INDEX
  VSB - VISIBILITY
$$



USA.gov is the U.S. government's official web portal to all federal, state and local government web resources and services.